View from above orbital plane
|
View from above satellite
|
Ground track
|
The orbit data is extracted from the following two-line orbital elements,
1 23711U 95059B 21019.05201269 -.00000060 00000-0 -24291-4 0 9990
2 23711 100.6275 28.4767 0367538 237.9463 188.0330 13.12723450207928
Epoch (UTC): | 19 January 2021 01:14:53 |
Eccentricity: | 0.0367538 |
inclination: | 100.6275° |
perigee height: | 933 km |
apogee height: | 1491 km |
right ascension of ascending node: | 28.4767° |
argument of perigee: | 237.9463° |
revolutions per day: | 13.12723450 |
mean anomaly at epoch: | 188.0330° |
orbit number at epoch: | 20792 |
The dashed part of the orbit path shows where the satellite is in the earth's shadow,
|
|